TimeCDT,TemperatureF,Dew PointF,Humidity,Sea Level PressureIn,VisibilityMPH,Wind Direction,Wind SpeedMPH,Gust SpeedMPH,PrecipitationIn,Events,Conditions,WindDirDegrees,DateUTC
12:53 AM,46.9,44.1,90,29.96,10.0,Calm,Calm,-,N/A,,Clear,0,2012-10-31 05:53:00
1:53 AM,44.1,42.1,93,29.96,10.0,Calm,Calm,-,N/A,,Clear,0,2012-10-31 06:53:00
2:53 AM,44.1,42.1,93,29.96,9.0,Calm,Calm,-,N/A,,Clear,0,2012-10-31 07:53:00
3:53 AM,45.0,42.1,90,29.96,10.0,Calm,Calm,-,N/A,,Clear,0,2012-10-31 08:53:00
4:53 AM,42.1,41.0,96,29.97,9.0,Calm,Calm,-,N/A,,Clear,0,2012-10-31 09:53:00
5:53 AM,43.0,41.0,93,29.97,10.0,SSW,3.5,-,N/A,,Clear,200,2012-10-31 10:53:00
6:53 AM,42.1,39.9,92,29.98,9.0,NNE,4.6,-,N/A,,Mostly Cloudy,20,2012-10-31 11:53:00
7:53 AM,43.0,42.1,97,30.00,9.0,SSW,3.5,-,N/A,,Scattered Clouds,200,2012-10-31 12:53:00
8:53 AM,46.9,46.0,97,30.01,7.0,Calm,Calm,-,N/A,,Scattered Clouds,0,2012-10-31 13:53:00
9:53 AM,54.0,42.1,64,30.02,10.0,NE,9.2,-,N/A,,Clear,40,2012-10-31 14:53:00
10:53 AM,57.0,37.0,47,30.02,10.0,NE,12.7,-,N/A,,Scattered Clouds,40,2012-10-31 15:53:00
11:53 AM,61.0,36.0,39,30.02,10.0,NE,8.1,-,N/A,,Clear,40,2012-10-31 16:53:00
12:53 PM,63.0,36.0,37,30.01,10.0,NNE,4.6,-,N/A,,Clear,30,2012-10-31 17:53:00
1:53 PM,66.0,37.0,34,29.99,10.0,NNE,10.4,-,N/A,,Clear,30,2012-10-31 18:53:00
2:53 PM,66.0,37.0,34,29.97,10.0,Calm,Calm,-,N/A,,Clear,0,2012-10-31 19:53:00
3:53 PM,68.0,37.0,32,29.97,10.0,Calm,Calm,-,N/A,,Clear,0,2012-10-31 20:53:00
4:53 PM,66.9,39.0,36,29.98,10.0,North,3.5,-,N/A,,Clear,350,2012-10-31 21:53:00
5:53 PM,64.9,39.9,40,29.98,10.0,Calm,Calm,-,N/A,,Clear,0,2012-10-31 22:53:00
6:53 PM,57.0,46.0,67,29.99,10.0,Calm,Calm,-,N/A,,Clear,0,2012-10-31 23:53:00
7:53 PM,54.0,46.0,75,29.99,10.0,Calm,Calm,-,N/A,,Clear,0,2012-11-01 00:53:00
8:53 PM,52.0,46.0,80,30.00,10.0,Calm,Calm,-,N/A,,Clear,0,2012-11-01 01:53:00
9:53 PM,48.9,46.0,90,30.00,10.0,Calm,Calm,-,N/A,,Clear,0,2012-11-01 02:53:00
10:53 PM,46.9,45.0,93,30.00,10.0,Calm,Calm,-,N/A,,Clear,0,2012-11-01 03:53:00
11:53 PM,48.0,45.0,89,30.01,9.0,Calm,Calm,-,N/A,,Clear,0,2012-11-01 04:53:00